Temp
-4 -4 -4 -4 -4 -3 -3 -3 -4 -4 -4 -3 -2 -1 -1 -1 -1 -2 -2 -2 -2 -1 -1 -1 -0 -0 -0 -0 0 0 1 1 2 2 3 3 4 4
-5 -5 -5 -5 -5 -4 -4 -4 -4 -4 -5 -4 -4 -3 -3 -2 -2 -2 -2 -2 -2 -2 -2 -1 -1 -1 -0 -0 0 0 0 1 1 1 2 2 3 4
-6 -6 -6 -6 -5 -5 -5 -5 -5 -4 -5 -4 -4 -4 -3 -3 -3 -3 -3 -3 -3 -3 -2 -1 -1 -1 -0 -0 -0 -0 -0 -0 0 1 1 1 2 3
-7 -7 -7 -7 -6 -6 -6 -6 -5 -5 -5 -5 -5 -5 -4 -4 -4 -4 -3 -3 -3 -3 -2 -1 -1 -1 -1 -1 -1 -1 -1 -0 -0 -0 0 1 2 2
-8 -8 -8 -7 -7 -7 -7 -6 -6 -6 -5 -5 -5 -5 -5 -5 -4 -4 -4 -3 -3 -3 -2 -2 -2 -2 -2 -1 -1 -1 -1 -1 -1 -0 -0 -0 0 0
-9 -8 -8 -8 -8 -7 -7 -7 -7 -6 -6 -6 -6 -6 -5 -5 -5 -5 -4 -4 -4 -3 -3 -3 -3 -3 -2 -2 -2 -2 -2 -1 -1 -1 -0 -0 -0 0
-9 -9 -8 -8 -7 -7 -7 -7 -7 -7 -7 -7 -6 -6 -6 -6 -5 -5 -5 -5 -5 -5 -5 -4 -4 -3 -3 -3 -3 -2 -2 -2 -1 -1 -0 -0 -0 -0
-9 -9 -9 -9 -8 -7 -7 -6 -6 -7 -8 -7 -7 -6 -6 -6 -6 -6 -6 -6 -6 -5 -5 -4 -4 -4 -4 -4 -4 -3 -2 -2 -1 -1 -1 -1 -0 -0
-9 -10 -9 -9 -9 -8 -8 -7 -6 -6 -6 -6 -6 -7 -7 -7 -7 -6 -6 -6 -6 -5 -5 -5 -5 -5 -5 -4 -4 -3 -3 -2 -2 -1 -1 -1 -1 -0
-10 -10 -10 -10 -10 -9 -9 -8 -8 -8 -7 -7 -7 -7 -7 -7 -7 -6 -6 -6 -6 -6 -5 -5 -5 -5 -5 -4 -4 -3 -3 -2 -2 -2 -2 -1 -1 -1
-10 -10 -10 -10 -10 -9 -8 -8 -8 -8 -8 -7 -7 -6 -6 -6 -6 -6 -6 -6 -6 -6 -6 -5 -5 -5 -5 -5 -4 -4 -3 -3 -3 -3 -2 -2 -2 -1
-10 -10 -10 -9 -9 -9 -8 -8 -8 -8 -8 -8 -8 -8 -7 -7 -6 -6 -6 -6 -6 -6 -5 -5 -5 -5 -6 -5 -5 -5 -5 -5 -4 -4 -4 -3 -3 -2
-10 -10 -10 -10 -10 -9 -8 -8 -9 -8 -8 -8 -8 -7 -7 -7 -7 -7 -7 -6 -6 -6 -6 -6 -6 -6 -6 -6 -6 -6 -6 -5 -5 -5 -5 -4 -4 -3
-11 -11 -11 -10 -10 -9 -9 -8 -8 -7 -7 -8 -8 -8 -8 -7 -7 -7 -7 -7 -6 -6 -6 -6 -6 -6 -6 -7 -6 -6 -6 -6 -6 -6 -6 -5 -5 -4
-10 -11 -10 -10 -9 -9 -9 -9 -8 -8 -8 -8 -8 -8 -8 -8 -7 -7 -7 -8 -7 -7 -7 -7 -7 -7 -7 -7 -7 -7 -6 -6 -6 -6 -6 -6 -6 -6
-12 -12 -11 -10 -10 -9 -9 -10 -9 -9 -9 -9 -8 -8 -9 -8 -8 -8 -8 -8 -8 -8 -8 -8 -7 -7 -7 -7 -7 -7 -7 -7 -7 -7 -6 -6 -6 -6
-13 -13 -13 -12 -12 -11 -11 -10 -10 -9 -9 -9 -9 -9 -9 -9 -9 -9 -9 -9 -8 -9 -8 -8 -8 -8 -8 -8 -8 -7 -7 -7 -7 -7 -7 -7 -7 -6
-11 -12 -12 -12 -11 -11 -10 -10 -10 -9 -10 -10 -10 -10 -10 -10 -10 -9 -9 -9 -9 -9 -9 -9 -9 -9 -9 -8 -8 -8 -7 -7 -7 -7 -7 -7 -7 -7
-10 -10 -11 -11 -11 -11 -11 -11 -11 -11 -11 -11 -11 -11 -11 -11 -10 -10 -10 -10 -10 -10 -10 -9 -9 -9 -9 -9 -8 -7 -7 -7 -7 -7 -7 -6 -7 -6
-11 -12 -12 -12 -12 -12 -12 -12 -13 -13 -13 -13 -13 -13 -13 -12 -12 -12 -11 -11 -11 -11 -11 -10 -10 -10 -10 -10 -9 -8 -8 -8 -7 -7 -7 -7 -7 -6
-13 -13 -13 -13 -13 -13 -13 -13 -14 -14 -14 -14 -14 -14 -14 -14 -13 -12 -12 -11 -10 -10 -10 -10 -10 -9 -9 -9 -9 -9 -9 -8 -8 -8 -8 -8 -7 -7
-14 -14 -13 -13 -13 -14 -14 -14 -15 -15 -15 -15 -16 -15 -15 -15 -14 -13 -13 -12 -12 -12 -11 -11 -11 -11 -11 -11 -10 -10 -10 -9 -9 -8 -8 -7 -7 -7
-14 -14 -14 -14 -14 -14 -15 -15 -15 -16 -16 -16 -16 -16 -16 -15 -15 -14 -14 -13 -13 -12 -12 -12 -11 -11 -11 -11 -10 -10 -10 -10 -10 -9 -9 -9 -8 -7
Height
878 878 878 878 878 879 878 877 876 871 867 866 866 866 864 863 861 860 859 857 856 854 851 849 847 844 842 839 837 835 833 830 827 824 822 819 817 815
873 874 874 873 873 873 873 872 872 869 863 864 863 862 861 859 857 856 853 852 851 849 847 845 843 840 838 834 832 830 827 825 823 820 817 814 812 810
869 869 868 869 868 867 867 867 866 866 860 858 858 857 855 854 852 850 849 847 844 843 842 840 837 835 833 830 827 824 822 819 817 815 812 809 807 804
864 863 862 863 863 862 862 861 860 860 858 852 853 852 850 849 847 844 843 841 839 837 835 834 831 829 827 824 821 818 816 814 811 809 807 804 802 801
859 858 858 858 857 856 856 855 855 854 853 849 847 846 844 844 840 839 836 835 833 831 830 827 825 822 821 818 815 812 810 807 805 803 801 799 797 795
853 853 852 852 851 850 850 849 849 848 847 845 842 840 839 837 836 833 830 829 827 826 824 822 820 817 813 810 808 806 803 801 799 796 795 793 791 789
847 847 847 845 844 844 842 841 842 841 840 838 836 833 831 830 829 827 825 825 821 821 818 815 811 810 806 804 801 798 796 795 793 789 787 785 783 782
839 839 838 838 837 836 835 834 833 831 829 829 826 823 822 822 822 822 821 819 814 815 812 806 806 801 799 797 794 791 788 787 784 781 779 777 774 772
831 831 830 830 830 830 828 826 824 823 821 820 817 816 815 816 817 816 813 811 807 805 804 796 797 792 790 787 784 783 782 778 776 773 770 769 765 763
823 823 823 823 824 823 821 818 816 815 815 814 812 810 809 808 808 806 803 799 796 794 794 787 786 782 781 778 776 773 772 770 767 764 762 759 756 753
816 816 816 815 815 815 812 809 807 806 805 805 803 801 800 798 797 795 791 788 785 785 784 781 777 774 772 768 766 765 762 760 758 756 752 749 746 742
807 806 807 806 806 805 803 801 798 796 796 795 793 792 791 789 789 787 784 782 779 775 774 773 768 767 761 760 757 755 752 749 746 744 742 739 735 732
798 798 798 798 797 795 793 791 788 787 785 784 782 781 780 779 778 777 775 774 770 765 764 763 760 759 755 749 747 744 743 737 735 732 730 728 725 723
789 789 788 789 787 785 783 781 779 777 775 774 772 771 769 769 768 767 765 763 761 758 757 756 753 751 746 740 735 733 729 726 725 721 718 715 713 711
780 779 778 777 775 774 772 771 770 768 767 765 763 762 762 761 760 759 757 755 753 749 748 746 744 740 737 731 725 721 718 713 713 710 706 704 701 698
772 770 770 769 768 765 764 763 762 761 760 758 757 755 754 754 753 752 749 746 743 738 737 735 733 731 725 720 716 709 708 701 700 697 696 691 687 685
765 764 763 761 760 758 757 756 754 754 753 752 751 749 748 747 744 743 740 736 733 730 726 724 722 719 714 709 703 699 694 689 687 683 684 677 672 669
753 753 752 752 750 750 748 747 747 747 747 747 746 744 742 739 736 733 732 729 725 721 717 715 711 707 701 693 694 685 681 677 674 669 669 664 655 653
741 740 740 740 740 740 741 741 742 742 742 742 741 738 735 731 728 725 722 720 715 712 708 705 702 699 689 677 670 676 668 663 661 656 653 649 640 632
735 735 736 736 736 737 737 738 738 737 737 735 733 730 727 724 720 716 713 709 706 701 696 693 690 685 679 666 655 654 659 652 648 641 637 631 622 621
730 730 731 732 732 733 733 733 732 731 730 727 724 722 718 715 710 706 702 698 695 689 683 677 672 669 663 656 644 636 634 634 630 626 621 616 609 608
727 726 727 727 727 727 727 726 725 723 721 718 714 711 708 705 700 696 691 687 682 676 669 661 656 653 648 640 627 620 616 613 610 607 604 600 596 586
720 721 721 721 721 721 721 720 717 714 711 708 704 700 697 693 689 684 679 674 668 662 654 646 640 635 627 621 612 604 599 595 592 586 578 577 574 569
Wind_Speed
13 14 15 16 17 18 19 19 16 8 7 13 16 16 18 20 22 21 21 21 21 21 20 20 20 21 22 22 22 22 22 23 24 24 24 25 25 25
14 15 17 18 18 18 18 19 20 20 10 15 20 22 23 25 22 21 24 24 21 22 21 19 21 22 22 22 22 23 24 24 25 26 27 26 26 26
17 18 19 18 19 20 19 21 23 23 20 22 23 22 22 24 25 27 25 25 29 22 21 21 22 22 22 23 24 26 26 26 26 26 27 28 27 25
19 19 20 19 19 20 20 21 23 24 25 24 23 24 25 25 26 26 30 29 25 24 24 26 22 22 24 26 27 25 27 27 27 27 25 24 24 26
20 21 21 21 21 21 21 22 24 22 23 23 23 23 25 26 27 25 27 30 25 27 24 21 24 28 28 27 27 26 27 27 27 25 26 26 26 27
21 22 22 22 23 22 22 23 23 23 23 23 23 22 21 23 26 22 22 26 26 22 26 26 27 30 30 27 26 27 26 26 27 28 28 28 29 29
21 21 21 21 22 24 25 27 28 29 26 25 25 26 25 22 18 22 21 20 26 25 29 32 28 28 28 29 30 28 28 27 29 30 30 31 32 33
22 21 22 24 25 27 28 30 29 27 28 28 29 27 27 22 20 18 22 25 22 26 26 30 27 29 32 31 30 30 32 32 32 31 30 31 33 33
22 22 23 24 25 25 25 28 29 30 30 28 25 21 22 21 22 25 27 25 28 30 29 31 29 32 33 31 30 30 33 34 36 34 34 35 36 37
24 24 25 26 27 27 28 30 30 30 30 31 33 34 33 34 32 32 34 34 35 34 32 29 29 30 30 31 33 33 31 31 33 36 37 38 38 39
25 25 27 27 27 28 30 31 30 30 29 32 35 36 38 38 37 35 29 21 20 21 22 27 28 29 31 30 28 30 35 35 35 35 38 38 37 38
25 26 28 30 30 31 33 32 32 33 31 32 33 35 36 36 32 33 31 27 26 26 31 27 28 22 16 28 30 31 33 35 37 37 37 38 39 38
25 24 25 29 31 31 32 32 30 31 32 33 33 31 29 29 32 31 31 31 30 31 30 27 23 25 26 29 33 35 33 37 36 35 35 36 37 37
29 28 29 30 32 33 34 34 35 36 34 29 25 24 25 26 25 26 29 31 29 28 28 30 30 30 30 29 28 33 34 36 32 34 34 36 37 38
29 28 32 33 35 35 33 33 34 33 29 24 20 20 20 22 21 24 28 30 34 35 33 33 33 33 32 31 31 32 34 36 31 33 36 35 36 36
26 27 29 30 31 32 28 24 22 19 20 20 21 18 18 21 23 25 27 28 29 31 29 30 32 33 34 35 35 35 35 35 35 35 34 36 37 37
26 28 28 26 25 26 26 26 24 22 22 19 17 18 21 25 28 29 30 29 25 25 29 30 31 34 37 39 36 36 38 38 39 39 34 37 40 41
29 28 26 27 26 26 24 28 22 17 14 16 20 23 25 26 27 26 25 25 26 28 28 30 31 31 33 38 39 39 39 38 39 41 38 36 40 41
31 27 26 25 25 14 7 6 10 15 18 20 23 25 27 27 28 27 27 27 28 28 30 31 30 27 15 17 38 35 39 38 36 36 36 36 40 43
24 19 15 13 12 11 12 15 19 21 21 23 24 25 26 25 26 27 27 27 28 30 31 32 32 33 24 23 24 40 37 41 38 38 38 43 48 49
9 9 9 12 12 15 17 19 23 25 25 26 26 25 27 26 29 29 30 34 36 33 30 33 40 44 45 43 28 35 41 43 48 46 44 42 38 37
17 16 17 17 18 19 20 22 25 27 28 27 26 27 28 28 29 31 32 31 33 35 38 42 43 40 38 35 24 37 41 44 45 49 52 53 41 20
21 18 18 18 19 21 23 25 28 30 29 29 29 30 30 30 32 33 35 36 37 38 40 40 41 40 40 39 41 37 41 42 41 41 46 51 55 59
Wind_Direction
267 270 271 272 270 270 269 268 268 286 283 280 282 283 285 290 295 299 299 299 303 302 306 307 310 312 314 315 315 316 314 312 312 310 308 307 305 303
268 268 269 268 270 269 271 272 268 269 277 278 281 282 285 288 288 289 291 296 291 297 298 299 304 305 307 309 310 311 310 307 305 303 303 303 302 299
269 270 272 272 272 272 272 272 272 273 274 281 281 283 284 286 288 286 291 289 297 293 292 294 298 300 303 303 304 304 303 303 302 299 297 297 297 296
268 269 271 274 272 274 274 273 272 272 272 279 282 282 281 285 285 284 284 289 284 289 289 295 292 297 299 300 300 299 299 299 299 297 295 293 289 291
265 266 269 270 272 273 273 274 275 275 274 278 283 284 283 282 282 284 283 286 284 290 285 289 293 297 297 297 296 297 296 295 294 294 295 293 289 288
265 266 266 266 268 270 270 270 272 272 274 275 278 281 280 280 281 279 291 290 286 287 292 290 289 290 294 295 295 295 294 292 290 290 290 289 288 287
264 266 267 268 267 266 260 258 257 258 259 261 266 270 272 272 268 285 283 291 293 294 292 289 287 287 286 290 293 291 291 287 287 287 286 286 287 286
264 268 271 272 272 271 271 272 268 254 244 246 253 256 261 266 278 278 283 285 284 284 282 280 283 283 283 282 285 288 289 288 286 286 284 288 285 282
264 268 270 271 273 276 277 274 274 274 276 279 277 277 281 277 277 276 273 269 268 271 274 275 276 279 281 283 285 285 285 285 287 285 287 287 285 284
264 265 266 268 268 270 271 270 269 269 269 270 273 277 274 275 273 267 265 265 267 265 264 265 273 274 280 280 282 285 285 285 287 288 287 286 285 283
265 264 265 265 267 270 272 273 273 271 270 270 272 274 272 272 270 268 264 266 279 282 276 271 277 279 280 275 278 283 286 285 285 285 287 287 285 284
265 265 267 268 270 272 269 267 267 267 267 269 269 269 270 272 275 277 283 282 281 281 277 273 278 272 278 280 281 281 283 284 286 287 285 285 284 283
266 267 268 270 272 273 272 271 269 272 268 266 265 263 259 262 268 268 267 267 268 268 273 273 275 279 276 281 278 279 280 281 282 282 281 280 279 279
263 264 264 269 273 273 272 272 271 272 274 272 268 262 255 262 267 269 270 269 269 275 281 281 281 277 276 277 276 280 276 276 275 275 275 276 277 276
264 264 268 270 270 271 274 275 274 275 277 277 277 272 269 273 275 279 283 284 283 278 276 274 272 275 272 272 275 276 277 277 274 272 272 271 270 269
271 273 274 274 273 271 275 277 279 277 270 267 271 271 276 279 278 279 280 282 280 279 277 276 276 274 273 271 271 272 272 272 274 270 269 270 269 266
257 260 259 259 262 264 267 268 263 265 275 270 274 279 284 287 284 282 279 277 273 279 282 280 279 275 271 270 271 269 270 268 270 270 269 268 267 264
248 242 243 246 250 255 257 260 257 256 267 286 289 286 284 280 279 278 275 276 277 275 276 279 281 283 279 272 263 266 266 266 267 269 266 265 268 264
257 250 247 252 255 242 239 269 278 281 286 285 281 278 276 275 276 275 274 273 273 274 274 277 277 275 277 275 277 266 266 267 267 266 265 261 263 266
280 281 279 238 232 245 264 272 281 282 278 275 273 272 273 274 275 271 270 271 273 275 276 274 269 265 261 267 276 275 267 268 265 264 264 264 262 267
278 268 248 241 252 269 275 279 278 275 277 277 272 273 275 273 269 267 268 271 274 276 275 273 270 272 274 277 274 273 269 261 259 258 261 261 264 266
279 272 265 259 260 271 278 278 278 280 280 279 277 275 272 269 267 268 268 268 269 270 271 273 276 275 270 264 265 269 270 270 266 263 261 260 262 263
270 259 261 259 273 281 278 278 282 284 282 280 275 273 271 268 266 266 266 266 267 270 271 273 273 271 266 265 265 268 268 267 266 266 262 259 259 260